This demonstration page uses our WeatherBlox Daily Observations layout. Learn more.

Left ArrowRight Arrow

39.92423, -83.80882

Hourly Observations for November 4, 2020

Temp ( °F °C ) Dew Point ( °F °C ) Humidity (%) Winds ( mph kmh ) Pressure ( in mb ) Visibility ( mi km ) Precip ( " mm )
12:56 am 00:56 Clear 48 8.9 35 1.7 61 61 SSW 8 13 30.25 1024 10 16 N/A
1:56 am 01:56 Clear 47 8.3 35 1.7 63 63 SSW 6 9 30.25 1025 10 16 N/A
2:56 am 02:56 Clear 46 7.8 36 2.2 68 68 SSW 8 13 30.26 1025 10 16 N/A
3:56 am 03:56 Clear 47 8.3 36 2.2 66 66 SW 7 11 30.26 1025 10 16 N/A
4:56 am 04:56 Clear 46 7.8 36 2.2 68 68 SSW 5 7 30.27 1025 10 16 N/A
5:56 am 05:56 Clear 45 7.2 36 2.2 71 71 S 5 7 30.29 1026 10 16 N/A
6:56 am 06:56 Clear 44 6.7 36 2.2 73 73 VRB 3 6 30.30 1026 10 16 N/A
7:56 am 07:56 Sunny 47 8.3 37 2.8 69 69 S 5 7 30.32 1027 10 16 N/A
8:56 am 08:56 Sunny 53 11.7 38 3.3 57 57 SSW 9 15 30.33 1027 10 16 N/A
9:56 am 09:56 Sunny 57 13.9 39 3.9 51 51 S 8 13 30.33 1027 10 16 N/A
10:56 am 10:56 Sunny 62 16.7 42 5.6 48 48 SSW 9 15 30.32 1027 10 16 N/A
11:56 am 11:56 Sunny 66 18.9 41 5 40 40 SW 14 22 30.31 1026 10 16 N/A
12:56 pm 12:56 Sunny 69 20.6 41 5 36 36 SW 15 24 30.28 1025 10 16 N/A
1:56 pm 13:56 Sunny 70 21.1 40 4.4 34 34 SSW 13 20 30.27 1025 10 16 N/A
2:56 pm 14:56 Sunny 69 20.6 41 5 36 36 SSW 10 17 30.26 1025 10 16 N/A
3:56 pm 15:56 Sunny 69 20.6 41 5 36 36 SSW 9 15 30.26 1025 10 16 N/A
4:56 pm 16:56 Sunny 66 18.9 41 5 40 40 SSW 7 11 30.27 1025 10 16 N/A
5:56 pm 17:56 Clear 62 16.7 41 5 46 46 S 6 9 30.27 1025 10 16 N/A
6:56 pm 18:56 Clear 60 15.6 41 5 50 50 S 7 11 30.29 1026 10 16 N/A
7:56 pm 19:56 Clear 57 13.9 41 5 55 55 S 7 11 30.29 1026 10 16 N/A
8:56 pm 20:56 Clear 56 13.3 41 5 57 57 S 7 11 30.29 1026 10 16 N/A
9:56 pm 21:56 Clear 55 12.8 42 5.6 62 62 SSW 5 7 30.29 1026 10 16 N/A
10:56 pm 22:56 Clear 56 13.3 41 5 57 57 SSW 7 11 30.29 1026 10 16 N/A
11:56 pm 23:56 Clear 55 12.8 41 5 59 59 SW 8 13 30.28 1026 10 16 N/A

Powered by AerisWeather